铱星星座 38星 (IRIDIUM 38)

导读

IRIDIUM 38(铱星38)是美国铱星系统的通信卫星,于1997年11月9日发射升空。铱星系统是全球首个个人卫星移动通信网络,该卫星运行在约780千米的近地轨道,属于星座组网卫星,为系统提供全球语音通信接力覆盖。单颗铱星质量约670千克,采用三轴稳定结构,设计服务寿命5至8年,推动了全球个人卫星通信时代的开启。

基本信息
目录编号:
25043
目录名称:
IRIDIUM 38
国际标识:
1997-069E
轨道中心:
EARTH
卫星名称:
铱星星座 38星
卫星全名:
铱星星座 38星 (IRIDIUM 38)
卫星状态:
在轨 (已飞行10442 天)
发射日期:
1997-11-09 UTC
国别 :
美国 (US)
星等 :
--
轨道信息
数据来源 国际轨道数据 AOE轨道数据
星历时间 2026-06-12T14:21:43+0800
13小时前
查看轨道信息
2026-06-11T22:00:00+0800
1天前
查看轨道信息
半长轴 7141.651km 7141.653km
偏心率 0.0003014 0.0003096
轨道倾角 86.395° 86.396°
近地点辐角 45.028° 47.752°
升交点赤经 81.705° 81.992°
平近点角 315.116° 24.172°
近地点 761.361km 761.304km
远地点 765.667km 765.728km
周期 100.105分钟 100.105分钟
每日圈数 14.384836 14.384829
详细信息
平衡模式:
三轴稳定
覆盖范围:
全球
运营商:
铱星通信公司
运营商所在国:
美国
使用方式:
暂无
卫星简介
铱星(Iridium)是由共66个运作中的通信卫星组成的卫星通信系统。这个系统原本规划77个通信卫星,所以用原子序数为77的铱元素来命名。铱卫星允许人们使用手持型电子设备进行全球性的语音及数据通讯。该卫星已退役。
2D轨道图
3D轨道图
轨道高度分析图
轨道倾角分析图
轨道综合分析图
查看轨道综合分析图